Regional Weather Roundup
Issued by NWS

Home | Current Version | Previous Version | Text Only | Print | Product List | Glossary On
Versions: 1 2 3 4 5 6 7 8 9 10 11 12 13 14 15 16 17 18 19 20 21 22 23 24 25 26 27 28 29 30 31 32 33 34 35 36 37 38 39 40 41 42 43 44 45 46 47 48 49 50
000
ASUS43 KDTX 210901
RWRMI
MICHIGAN HOURLY REGIONAL WEATHER ROUNDUP
NATIONAL WEATHER SERVICE DETROIT/PONTIAC MI
400 AM EST SAT JAN 21 2017

NOTE: "FAIR" INDICATES FEW OR NO CLOUDS BELOW 12,000 FEET WITH NO
SIGNIFICANT WEATHER AND/OR OBSTRUCTION TO VISIBILITY.

MIZ047>049-052>055-059>063-066>070-074>076-081>083-211000-
SOUTHEAST LOWER MICHIGAN

CITY           SKY/WX    TMP DP  RH WIND       PRES   REMARKS
ADRIAN         FOG       41  41 100 E3        29.72F VSB 1/4
ALMA           FOG       34  34  99 E6        29.70F VSB 1/2 WCI  29
ANN ARBOR      FOG       41  41 100 N3        29.72F VSB 1/2
BAD AXE        FOG       34  34 100 CALM      29.75F VSB 1/2
CARO           FOG       35  35 100 E3        29.73F VSB 3/4
DETROIT CITY   FOG       39  39 100 E3        29.74F VSB 1/2
DETROIT        FOG       41  41 100 CALM      29.74F VSB 1/2
FLINT          CLOUDY    38  38 100 E6        29.72F FOG     WCI  33
GROSSE ILE     FOG       39  39  99 CALM      29.73S VSB 1/2
HILLSDALE      CLOUDY    43  43 100 SE6       29.69S FOG
HOWELL         CLOUDY    42  41  97 SE6       29.70F FOG

CITY           SKY/WX    TMP DP  RH WIND       PRES   REMARKS
JACKSON        CLOUDY    44  43  96 SE7       29.69F FOG
LAMBERTVILLE   CLOUDY    48  46  95 S5        29.71F FOG
LANSING        CLOUDY    40  37  89 E3        29.69F FOG
LAPEER         FOG       37  37 100 E10       29.74F VSB 1   WCI  30
MASON          CLOUDY    42  42 100 S6        29.70S FOG
MONROE         FOG       43  43 100 S6        29.72F VSB 1/2
MT. CLEMENS    FOG       37  37 100 E3        29.73F VSB 1/2
PONTIAC        FOG       39  37  92 E3        29.71F VSB 1/4
PORT HOPE        N/A     34  33  96 S3        29.74F
PORT HURON     FOG       37  37 100 E3        29.76F VSB 1/4
TRI CITIES     FOG       34  34 100 E7        29.72F VSB 1/4 WCI  28
MIDLAND        CLOUDY    35  34  96 E3        29.71F FOG
TROY           FOG       41  40  95 E3        29.75F VSB 1/4
SAGINAW HB     FOG       36  32  87 NE6       29.72F VSB 3/4 WCI  31
$$
MIZ043>046-050>051-056>058-064>065-071>073-077>080-211000-
SOUTHWEST LOWER MICHIGAN

CITY           SKY/WX    TMP DP  RH WIND       PRES   REMARKS
BATTLE CREEK   CLOUDY    46  46 100 S10       29.66F
BENTON HARBOR  CLOUDY    50  46  86 SE6       29.62F
BIG RAPIDS     FOG       33  32  97 CALM      29.67F VSB 3/4
COLDWATER      CLOUDY    47  47 100 SE8       29.67F FOG
FREMONT        FOG       35  35 100 E6        29.65F VSB 3/4 WCI  30
HOLLAND        CLOUDY    41  40  96 E6        29.64F
GRAND RAPIDS   CLOUDY    38  37  97 E8        29.66F FOG     WCI  32
IONIA          FOG       36  36 100 E7        29.67F VSB 3/4 WCI  30
KALAMAZOO      CLOUDY    47  44  90 S6        29.65F FOG
LUDINGTON      FOG       34  34 100 E7        29.64F VSB 3/4 WCI  28
MARSHALL       CLOUDY    47  46  98 S6        29.67F
MOUNT PLEASANT FOG       33  33  99 E5        29.70F VSB 1   WCI  29
MUSKEGON       LGT RAIN  39  38  96 E7        29.64F FOG     WCI  34
SOUTH HAVEN    CLOUDY    48  47  97 CALM      29.63F FOG
$$
MIZ016>042-211000-
NORTHERN LOWER MICHIGAN

CITY           SKY/WX    TMP DP  RH WIND       PRES   REMARKS
ALPENA         CLOUDY    33  31  92 CALM      29.72F FOG
BEAVER ISLAND  CLOUDY    35  35 100 CALM      29.68F FOG
BELLAIRE       CLOUDY    33  33  99 CALM      29.69F FOG
CADILLAC       CLOUDY    32  32  99 E3        29.66S FOG
CHARLEVOIX     CLOUDY    34  34 100 SE3       29.72S FOG
FRANKFORT      CLOUDY    34  33  96 CALM      29.66F
GAYLORD        CLOUDY    34  31  88 S5        29.68S WCI  30
GRAYLING       FOG       33  33  99 CALM      29.68F VSB 3/4
HARBOR SPRINGS CLOUDY    33  33 100 CALM      29.69F FOG
HOUGHTON LAKE  CLOUDY    32  31  96 SE5       29.69F FOG     WCI  27
MANISTEE       CLOUDY    34  33  96 E7        29.65F WCI  28
OSCODA         FOG       33  33  98 CALM      29.73F VSB 1
PELLSTON       FOG       33  31  92 CALM      29.70F VSB 1/2
ROGERS CITY    CLOUDY    33  32  96 S3        29.72F FOG
TRAVERSE CITY  CLOUDY    35  33  92 CALM      29.66F
$$
MIZ007>008-015-211000-
EASTERN UPPER MICHIGAN

CITY           SKY/WX    TMP DP  RH WIND       PRES   REMARKS
KINROSS        FOG       32  32 100 E6        29.70F VSB 1   WCI  26
MACKINAC ISLAN FOG       32  32 100 SE3       29.70F VSB 1/2
NEWBERRY       FOG       32  32  99 S6        29.67F VSB 1   WCI  26
S. S. MARIE    FOG       33  32  96 E5        29.70F VSB 1/2 WCI  29
MUNISING         N/A     34  33  96 S3        29.65F
$$
MIZ004>006-011>014-085-211000-
CENTRAL UPPER MICHIGAN

CITY           SKY/WX    TMP DP  RH WIND       PRES   REMARKS
MANISTIQUE     CLOUDY    33  32  96 SE6       29.67F FOG     WCI  27
ESCANABA       FOG       33  33 100 NE3       29.65F VSB 1/2
SAWYER-GWINN   FOG       32  31  99 CALM      29.62F VSB 3/4
$$
MIZ001>003-009>011-084-211000-
WESTERN UPPER MICHIGAN

CITY           SKY/WX    TMP DP  RH WIND       PRES   REMARKS
IRON MOUNTAIN  CLOUDY    32  30  92 CALM      29.60F FOG
HOUGHTON       FOG       34  32  92 E8        29.60F VSB 1/4 WCI  27
COPPER HARBOR    N/A     35  35 100 SW3       29.63F
IRONWOOD       CLOUDY    35  33  92 SE7       29.57F WCI  29
$$

ABBREVIATIONS USED IN REMARKS
   TC - TEMPERATURE IN CELSIUS
  WCI - WIND CHILL INDEX
   HX - HEAT INDEX
  VSB - VISIBILITY





USA.gov is the U.S. government's official web portal to all federal, state and local government web resources and services.